owner,sensor,date,latitude,longitude,vertical_datum,wind_speed,wind_to_direction,wind_speed_of_gust,qcFlag 
TABS,ioos:station:wmo:42045:1,2011-06-01T00:00:00Z,26.2168,-96.4998,4.0,6.381010892,102.4902426,7.72,'11111222,11111222,11111222' 
TABS,ioos:station:wmo:42045:1,2011-06-01T00:30:00Z,26.2168,-96.4998,4.0,6.099081898,105.4038099,7.37,'11111222,11111222,11111222' 
TABS,ioos:station:wmo:42045:1,2011-06-01T01:00:00Z,26.2168,-96.4998,4.0,5.879328193,104.5802621,7.62,'11111222,11111222,11111222' 
TABS,ioos:station:wmo:42045:1,2011-06-01T01:30:00Z,26.2168,-96.4998,4.0,6.32534584,103.9048167,7.73,'11111222,11111222,11111222' 
TABS,ioos:station:wmo:42045:1,2011-06-01T02:00:00Z,26.2168,-96.4998,4.0,7.008637528,109.4177369,8.96,'11111222,11111222,11111222' 
TABS,ioos:station:wmo:42045:1,2011-06-01T02:30:00Z,26.2168,-96.4998,4.0,6.378667572,111.6183005,7.6,'11111222,11111222,11111222' 
TABS,ioos:station:wmo:42045:1,2011-06-01T03:00:00Z,26.2168,-96.4998,4.0,7.252620216,113.9147265,8.64,'11111222,11111222,11111222' 
TABS,ioos:station:wmo:42045:1,2011-06-01T03:30:00Z,26.2168,-96.4998,4.0,6.963634109,117.2645514,8.59,'11111222,11111222,11111222' 
TABS,ioos:station:wmo:42045:1,2011-06-01T04:00:00Z,26.2168,-96.4998,4.0,6.905447125,117.2333341,8.16,'11111222,11111222,11111222' 
TABS,ioos:station:wmo:42045:1,2011-06-01T04:30:00Z,26.2168,-96.4998,4.0,6.556531095,121.338777,7.86,'11111222,11111222,11111222' 
TABS,ioos:station:wmo:42045:1,2011-06-01T05:00:00Z,26.2168,-96.4998,4.0,6.741846928,120.4831303,8.1,'11111222,11111222,11111222' 
TABS,ioos:station:wmo:42045:1,2011-06-01T05:30:00Z,26.2168,-96.4998,4.0,6.021195895,117.9273084,7.27,'11111222,11111222,11111222' 
TABS,ioos:station:wmo:42045:1,2011-06-01T06:00:00Z,26.2168,-96.4998,4.0,6.381481019,120.8255241,8.31,'11111222,11111222,11111222' 
TABS,ioos:station:wmo:42045:1,2011-06-01T06:30:00Z,26.2168,-96.4998,4.0,5.25594901,117.7842824,6.64,'11111222,11111222,11111222' 
TABS,ioos:station:wmo:42045:1,2011-06-01T07:00:00Z,26.2168,-96.4998,4.0,5.690140596,122.2939128,6.57,'11111222,11111222,11111222' 
TABS,ioos:station:wmo:42045:1,2011-06-01T07:30:00Z,26.2168,-96.4998,4.0,4.713767071,117.0002832,5.45,'11111222,11111222,11111222' 
TABS,ioos:station:wmo:42045:1,2011-06-01T08:00:00Z,26.2168,-96.4998,4.0,4.231040061,115.7780987,5.09,'11111222,11111222,11111222' 
TABS,ioos:station:wmo:42045:1,2011-06-01T08:30:00Z,26.2168,-96.4998,4.0,4.430406302,108.1490553,5.27,'11111222,11111222,11111222' 
TABS,ioos:station:wmo:42045:1,2011-06-01T09:00:00Z,26.2168,-96.4998,4.0,4.495887009,111.2574753,5.84,'11111222,11111222,11111222' 
TABS,ioos:station:wmo:42045:1,2011-06-01T09:30:00Z,26.2168,-96.4998,4.0,4.986060569,110.1798324,6.06,'11111222,11111222,11111222' 
TABS,ioos:station:wmo:42045:1,2011-06-01T10:00:00Z,26.2168,-96.4998,4.0,5.166052652,111.6988039,6.22,'11111222,11111222,11111222' 
TABS,ioos:station:wmo:42045:1,2011-06-01T10:30:00Z,26.2168,-96.4998,4.0,5.503180898,109.4230847,6.59,'11111222,11111222,11111222' 
TABS,ioos:station:wmo:42045:1,2011-06-01T11:00:00Z,26.2168,-96.4998,4.0,5.344342803,108.7743502,6.28,'11111222,11111222,11111222' 
TABS,ioos:station:wmo:42045:1,2011-06-01T11:30:00Z,26.2168,-96.4998,4.0,4.823992123,97.74417184,5.96,'11111222,11111222,11111222' 
TABS,ioos:station:wmo:42045:1,2011-06-01T12:00:00Z,26.2168,-96.4998,4.0,4.788527958,98.16434693,5.85,'11111222,11111222,11111222' 
TABS,ioos:station:wmo:42045:1,2011-06-01T12:30:00Z,26.2168,-96.4998,4.0,4.892003679,91.64033908,5.79,'11111222,11111222,11111222' 
TABS,ioos:station:wmo:42045:1,2011-06-01T13:00:00Z,26.2168,-96.4998,4.0,5.301848734,91.51353894,7.34,'11111222,11111222,11111222' 
TABS,ioos:station:wmo:42045:1,2011-06-01T13:30:00Z,26.2168,-96.4998,4.0,4.949595943,95.10051532,6.04,'11111222,11111222,11111222' 
TABS,ioos:station:wmo:42045:1,2011-06-01T14:00:00Z,26.2168,-96.4998,4.0,4.829327075,93.56194568,5.64,'11111222,11111222,11111222' 
TABS,ioos:station:wmo:42045:1,2011-06-01T14:30:00Z,26.2168,-96.4998,4.0,4.441902745,91.67751699,5.23,'11111222,11111222,11111222' 
TABS,ioos:station:wmo:42045:1,2011-06-01T15:00:00Z,26.2168,-96.4998,4.0,4.406007263,92.99269715,5.22,'11111222,11111222,11111222' 
TABS,ioos:station:wmo:42045:1,2011-06-01T15:30:00Z,26.2168,-96.4998,4.0,4.084531797,97.4560022,4.78,'11111222,11111222,11111222' 
TABS,ioos:station:wmo:42045:1,2011-06-01T16:00:00Z,26.2168,-96.4998,4.0,4.234949823,99.24030113,4.98,'11111222,11111222,11111222' 
TABS,ioos:station:wmo:42045:1,2011-06-01T16:30:00Z,26.2168,-96.4998,4.0,4.158328991,95.38195539,4.99,'11111222,11111222,11111222' 
TABS,ioos:station:wmo:42045:1,2011-06-01T17:00:00Z,26.2168,-96.4998,4.0,4.5239916,87.59255086,5.33,'11111222,11111222,11111222' 
TABS,ioos:station:wmo:42045:1,2011-06-01T17:30:00Z,26.2168,-96.4998,4.0,4.554393483,87.48270931,5.39,'11111222,11111222,11111222' 
TABS,ioos:station:wmo:42045:1,2011-06-01T18:00:00Z,26.2168,-96.4998,4.0,4.691151245,82.40495347,5.49,'11111222,11111222,11111222' 
TABS,ioos:station:wmo:42045:1,2011-06-01T18:30:00Z,26.2168,-96.4998,4.0,4.556720312,85.08975985,5.25,'11111222,11111222,11111222' 
TABS,ioos:station:wmo:42045:1,2011-06-01T19:00:00Z,26.2168,-96.4998,4.0,4.764388733,85.54554374,6.11,'11111222,11111222,11111222' 
TABS,ioos:station:wmo:42045:1,2011-06-01T19:30:00Z,26.2168,-96.4998,4.0,4.670010707,90.12310948,5.5,'11111222,11111222,11111222' 
TABS,ioos:station:wmo:42045:1,2011-06-01T20:00:00Z,26.2168,-96.4998,4.0,4.861028698,91.17917733,5.93,'11111222,11111222,11111222' 
TABS,ioos:station:wmo:42045:1,2011-06-01T20:30:00Z,26.2168,-96.4998,4.0,4.980491944,89.19427164,5.84,'11111222,11111222,11111222' 
TABS,ioos:station:wmo:42045:1,2011-06-01T21:00:00Z,26.2168,-96.4998,4.0,4.872011905,88.35292984,5.76,'11111222,11111222,11111222' 
TABS,ioos:station:wmo:42045:1,2011-06-01T21:30:00Z,26.2168,-96.4998,4.0,5.588175015,77.70434141,6.6,'11111222,11111222,11111222' 
TABS,ioos:station:wmo:42045:1,2011-06-01T22:00:00Z,26.2168,-96.4998,4.0,5.981454673,86.45312878,7.12,'11111222,11111222,11111222' 
TABS,ioos:station:wmo:42045:1,2011-06-01T22:30:00Z,26.2168,-96.4998,4.0,5.610570381,89.18258426,6.72,'11111222,11111222,11111222' 
TABS,ioos:station:wmo:42045:1,2011-06-01T23:00:00Z,26.2168,-96.4998,4.0,5.041477958,86.13259466,6.23,'11111222,11111222,11111222' 
TABS,ioos:station:wmo:42045:1,2011-06-01T23:30:00Z,26.2168,-96.4998,4.0,5.340037453,90.21501035,6.38,'11111222,11111222,11111222' 
TABS,ioos:station:wmo:42045:1,2011-06-02T00:00:00Z,26.2168,-96.4998,4.0,5.579184528,86.71152256,6.8,'11111222,11111222,11111222' 
TABS,ioos:station:wmo:42045:1,2011-06-02T00:30:00Z,26.2168,-96.4998,4.0,5.78042386,90.6942789,6.92,'11111222,11111222,11111222' 
TABS,ioos:station:wmo:42045:1,2011-06-02T01:00:00Z,26.2168,-96.4998,4.0,6.113607773,88.03110918,7.47,'11111222,11111222,11111222' 
TABS,ioos:station:wmo:42045:1,2011-06-02T01:30:00Z,26.2168,-96.4998,4.0,6.676503576,98.09409525,7.79,'11111222,11111222,11111222' 
TABS,ioos:station:wmo:42045:1,2011-06-02T02:00:00Z,26.2168,-96.4998,4.0,6.100860595,99.33920592,7.15,'11111222,11111222,11111222' 
TABS,ioos:station:wmo:42045:1,2011-06-02T02:30:00Z,26.2168,-96.4998,4.0,6.066539376,97.1019916,7.08,'11111222,11111222,11111222' 
TABS,ioos:station:wmo:42045:1,2011-06-02T03:00:00Z,26.2168,-96.4998,4.0,5.628294591,102.72795,6.72,'11111222,11111222,11111222' 
TABS,ioos:station:wmo:42045:1,2011-06-02T03:30:00Z,26.2168,-96.4998,4.0,5.784410082,106.3675637,7.22,'11111222,11111222,11111222' 
TABS,ioos:station:wmo:42045:1,2011-06-02T04:00:00Z,26.2168,-96.4998,4.0,5.90326181,116.7824379,7.56,'11111222,11111222,11111222' 
TABS,ioos:station:wmo:42045:1,2011-06-02T04:30:00Z,26.2168,-96.4998,4.0,5.723713829,113.4749836,7.0,'11111222,11111222,11111222' 
TABS,ioos:station:wmo:42045:1,2011-06-02T05:00:00Z,26.2168,-96.4998,4.0,5.402999167,119.9819902,6.45,'11111222,11111222,11111222' 
TABS,ioos:station:wmo:42045:1,2011-06-02T05:30:00Z,26.2168,-96.4998,4.0,5.057509268,129.5448067,6.21,'11111222,11111222,11111222' 
TABS,ioos:station:wmo:42045:1,2011-06-02T06:00:00Z,26.2168,-96.4998,4.0,4.965329798,129.525185,5.93,'11111222,11111222,11111222' 
TABS,ioos:station:wmo:42045:1,2011-06-02T06:30:00Z,26.2168,-96.4998,4.0,4.856346363,127.5545382,5.71,'11111222,11111222,11111222' 
TABS,ioos:station:wmo:42045:1,2011-06-02T07:00:00Z,26.2168,-96.4998,4.0,5.084977876,124.909282,6.29,'11111222,11111222,11111222' 
TABS,ioos:station:wmo:42045:1,2011-06-02T07:30:00Z,26.2168,-96.4998,4.0,5.008193287,127.3736156,5.99,'11111222,11111222,11111222' 
TABS,ioos:station:wmo:42045:1,2011-06-02T08:00:00Z,26.2168,-96.4998,4.0,4.527924469,125.1996884,6.01,'11111222,11111222,11111222' 
TABS,ioos:station:wmo:42045:1,2011-06-02T08:30:00Z,26.2168,-96.4998,4.0,4.128353183,127.6196966,5.47,'11111222,11111222,11111222' 
TABS,ioos:station:wmo:42045:1,2011-06-02T09:00:00Z,26.2168,-96.4998,4.0,3.384228125,132.1259606,4.1,'11111222,11111222,11111222' 
TABS,ioos:station:wmo:42045:1,2011-06-02T09:30:00Z,26.2168,-96.4998,4.0,3.572394155,119.1484246,4.58,'11111222,11111222,11111222' 
TABS,ioos:station:wmo:42045:1,2011-06-02T10:00:00Z,26.2168,-96.4998,4.0,3.298196477,126.2448347,4.15,'11111222,11111222,11111222' 
TABS,ioos:station:wmo:42045:1,2011-06-02T10:30:00Z,26.2168,-96.4998,4.0,2.745268657,130.4205208,3.62,'11111222,11111222,11111222' 
TABS,ioos:station:wmo:42045:1,2011-06-02T11:00:00Z,26.2168,-96.4998,4.0,2.800589224,130.8013335,3.38,'11111222,11111222,11111222' 
TABS,ioos:station:wmo:42045:1,2011-06-02T11:30:00Z,26.2168,-96.4998,4.0,2.899275772,144.830185,3.87,'11111222,11111222,11111222' 
TABS,ioos:station:wmo:42045:1,2011-06-02T12:00:00Z,26.2168,-96.4998,4.0,2.302086011,150.3171397,2.86,'11111222,11111222,11111222' 
TABS,ioos:station:wmo:42045:1,2011-06-02T12:30:00Z,26.2168,-96.4998,4.0,2.712213118,126.1519617,3.61,'11111222,11111222,11111222' 
TABS,ioos:station:wmo:42045:1,2011-06-02T13:00:00Z,26.2168,-96.4998,4.0,2.72154368,119.0140608,3.57,'11111222,11111222,11111222' 
TABS,ioos:station:wmo:42045:1,2011-06-02T13:30:00Z,26.2168,-96.4998,4.0,3.13158107,121.1523705,3.84,'11111222,11111222,11111222' 
TABS,ioos:station:wmo:42045:1,2011-06-02T14:00:00Z,26.2168,-96.4998,4.0,3.200281238,108.7750202,4.0,'11111222,11111222,11111222' 
TABS,ioos:station:wmo:42045:1,2011-06-02T14:30:00Z,26.2168,-96.4998,4.0,2.681678579,108.0299397,3.79,'11111222,11111222,11111222' 
TABS,ioos:station:wmo:42045:1,2011-06-02T15:00:00Z,26.2168,-96.4998,4.0,2.891401044,91.7841379,3.86,'11111222,11111222,11111222' 
TABS,ioos:station:wmo:42045:1,2011-06-02T15:30:00Z,26.2168,-96.4998,4.0,2.72045952,91.05353109,3.77,'11111222,11111222,11111222' 
TABS,ioos:station:wmo:42045:1,2011-06-02T16:00:00Z,26.2168,-96.4998,4.0,2.444626761,80.34462456,3.19,'11111222,11111222,11111222' 
TABS,ioos:station:wmo:42045:1,2011-06-02T16:30:00Z,26.2168,-96.4998,4.0,2.990468191,85.20412646,3.95,'11111222,11111222,11111222' 
TABS,ioos:station:wmo:42045:1,2011-06-02T17:00:00Z,26.2168,-96.4998,4.0,1.790781952,77.74842731,2.46,'11111222,11111222,11111222' 
TABS,ioos:station:wmo:42045:1,2011-06-02T17:30:00Z,26.2168,-96.4998,4.0,2.198044586,80.83725346,2.87,'11111222,11111222,11111222' 
TABS,ioos:station:wmo:42045:1,2011-06-02T18:00:00Z,26.2168,-96.4998,4.0,1.413541651,71.4364954,2.21,'11111222,11111222,11111222' 
TABS,ioos:station:wmo:42045:1,2011-06-02T18:30:00Z,26.2168,-96.4998,4.0,0.206155281,14.03600019,0.98,'11111222,11111222,11111222' 
TABS,ioos:station:wmo:42045:1,2011-06-02T19:00:00Z,26.2168,-96.4998,4.0,0.539351462,259.3151126,1.42,'11111222,11111222,11111222' 
TABS,ioos:station:wmo:42045:1,2011-06-02T19:30:00Z,26.2168,-96.4998,4.0,1.568470593,278.8016877,3.35,'11111222,11111222,11111222' 
TABS,ioos:station:wmo:42045:1,2011-06-02T20:00:00Z,26.2168,-96.4998,4.0,2.614517164,51.99014231,3.57,'11111222,11111222,11111222' 
TABS,ioos:station:wmo:42045:1,2011-06-02T20:30:00Z,26.2168,-96.4998,4.0,2.909106392,85.46493362,3.87,'11111222,11111222,11111222' 
TABS,ioos:station:wmo:42045:1,2011-06-02T21:00:00Z,26.2168,-96.4998,4.0,2.787274655,73.32006312,3.72,'11111222,11111222,11111222' 
TABS,ioos:station:wmo:42045:1,2011-06-02T21:30:00Z,26.2168,-96.4998,4.0,3.883464948,69.18456179,5.13,'11111222,11111222,11111222' 
TABS,ioos:station:wmo:42045:1,2011-06-02T22:00:00Z,26.2168,-96.4998,4.0,3.684087404,71.31877082,4.58,'11111222,11111222,11111222' 
TABS,ioos:station:wmo:42045:1,2011-06-02T22:30:00Z,26.2168,-96.4998,4.0,3.026763949,79.91486301,4.09,'11111222,11111222,11111222' 
TABS,ioos:station:wmo:42045:1,2011-06-02T23:00:00Z,26.2168,-96.4998,4.0,3.743701377,94.90385867,4.86,'11111222,11111222,11111222' 
TABS,ioos:station:wmo:42045:1,2011-06-02T23:30:00Z,26.2168,-96.4998,4.0,3.898679264,86.17573742,4.77,'11111222,11111222,11111222' 
TABS,ioos:station:wmo:42045:1,2011-06-03T00:00:00Z,26.2168,-96.4998,4.0,4.185355421,83.68963733,5.0,'11111222,11111222,11111222' 
TABS,ioos:station:wmo:42045:1,2011-06-03T00:30:00Z,26.2168,-96.4998,4.0,3.751333096,91.52794279,4.82,'11111222,11111222,11111222' 
TABS,ioos:station:wmo:42045:1,2011-06-03T01:00:00Z,26.2168,-96.4998,4.0,4.109026649,100.5172636,5.02,'11111222,11111222,11111222' 
TABS,ioos:station:wmo:42045:1,2011-06-03T01:30:00Z,26.2168,-96.4998,4.0,4.640387915,100.6807298,5.5,'11111222,11111222,11111222' 
TABS,ioos:station:wmo:42045:1,2011-06-03T02:00:00Z,26.2168,-96.4998,4.0,4.467303437,106.6504875,5.46,'11111222,11111222,11111222' 
TABS,ioos:station:wmo:42045:1,2011-06-03T02:30:00Z,26.2168,-96.4998,4.0,4.05907625,118.7122019,4.86,'11111222,11111222,11111222' 
TABS,ioos:station:wmo:42045:1,2011-06-03T03:00:00Z,26.2168,-96.4998,4.0,3.997911955,132.8717229,4.67,'11111222,11111222,11111222' 
TABS,ioos:station:wmo:42045:1,2011-06-03T03:30:00Z,26.2168,-96.4998,4.0,4.561688284,131.6234322,5.63,'11111222,11111222,11111222' 
TABS,ioos:station:wmo:42045:1,2011-06-03T04:00:00Z,26.2168,-96.4998,4.0,4.745576888,136.1102266,5.47,'11111222,11111222,11111222' 
TABS,ioos:station:wmo:42045:1,2011-06-03T04:30:00Z,26.2168,-96.4998,4.0,4.622812996,130.7898271,5.49,'11111222,11111222,11111222' 
TABS,ioos:station:wmo:42045:1,2011-06-03T05:00:00Z,26.2168,-96.4998,4.0,4.62615391,129.2984501,5.37,'11111222,11111222,11111222' 
TABS,ioos:station:wmo:42045:1,2011-06-03T05:30:00Z,26.2168,-96.4998,4.0,4.308224692,127.4554043,4.9,'11111222,11111222,11111222' 
TABS,ioos:station:wmo:42045:1,2011-06-03T06:00:00Z,26.2168,-96.4998,4.0,4.512172426,129.3344074,5.33,'11111222,11111222,11111222' 
TABS,ioos:station:wmo:42045:1,2011-06-03T06:30:00Z,26.2168,-96.4998,4.0,4.546086229,127.2231267,5.29,'11111222,11111222,11111222' 
TABS,ioos:station:wmo:42045:1,2011-06-03T07:00:00Z,26.2168,-96.4998,4.0,4.504220243,123.4081674,5.47,'11111222,11111222,11111222' 
TABS,ioos:station:wmo:42045:1,2011-06-03T07:30:00Z,26.2168,-96.4998,4.0,4.300290688,126.2040339,4.95,'11111222,11111222,11111222' 
TABS,ioos:station:wmo:42045:1,2011-06-03T08:00:00Z,26.2168,-96.4998,4.0,4.363633807,130.2598162,5.05,'11111222,11111222,11111222' 
TABS,ioos:station:wmo:42045:1,2011-06-03T08:30:00Z,26.2168,-96.4998,4.0,4.159735569,136.7537164,5.12,'11111222,11111222,11111222' 
TABS,ioos:station:wmo:42045:1,2011-06-03T09:00:00Z,26.2168,-96.4998,4.0,4.794183976,142.6284475,6.03,'11111222,11111222,11111222' 
TABS,ioos:station:wmo:42045:1,2011-06-03T09:30:00Z,26.2168,-96.4998,4.0,5.121532974,129.5337467,5.79,'11111222,11111222,11111222' 
TABS,ioos:station:wmo:42045:1,2011-06-03T10:00:00Z,26.2168,-96.4998,4.0,4.626542986,118.3933739,5.43,'11111222,11111222,11111222' 
TABS,ioos:station:wmo:42045:1,2011-06-03T10:30:00Z,26.2168,-96.4998,4.0,4.529293543,120.8122426,5.71,'11111222,11111222,11111222' 
TABS,ioos:station:wmo:42045:1,2011-06-03T11:00:00Z,26.2168,-96.4998,4.0,4.376711094,118.6735004,5.24,'11111222,11111222,11111222' 
TABS,ioos:station:wmo:42045:1,2011-06-03T11:30:00Z,26.2168,-96.4998,4.0,4.660911928,115.4108556,5.6,'11111222,11111222,11111222' 
TABS,ioos:station:wmo:42045:1,2011-06-03T12:00:00Z,26.2168,-96.4998,4.0,4.256594883,107.924532,4.85,'11111222,11111222,11111222' 
TABS,ioos:station:wmo:42045:1,2011-06-03T12:30:00Z,26.2168,-96.4998,4.0,4.411949682,96.89991178,5.16,'11111222,11111222,11111222' 
TABS,ioos:station:wmo:42045:1,2011-06-03T13:00:00Z,26.2168,-96.4998,4.0,4.473231494,92.17840028,5.09,'11111222,11111222,11111222' 
TABS,ioos:station:wmo:42045:1,2011-06-03T13:30:00Z,26.2168,-96.4998,4.0,5.082715809,95.41936524,5.79,'11111222,11111222,11111222' 
TABS,ioos:station:wmo:42045:1,2011-06-03T14:00:00Z,26.2168,-96.4998,4.0,5.321090114,97.1254206,6.07,'11111222,11111222,11111222' 
TABS,ioos:station:wmo:42045:1,2011-06-03T14:30:00Z,26.2168,-96.4998,4.0,5.301848734,104.1938928,6.17,'11111222,11111222,11111222' 
TABS,ioos:station:wmo:42045:1,2011-06-03T15:00:00Z,26.2168,-96.4998,4.0,4.73469112,99.48261532,5.41,'11111222,11111222,11111222' 
TABS,ioos:station:wmo:42045:1,2011-06-03T15:30:00Z,26.2168,-96.4998,4.0,4.239457512,112.0276481,4.8,'11111222,11111222,11111222' 
TABS,ioos:station:wmo:42045:1,2011-06-03T16:00:00Z,26.2168,-96.4998,4.0,4.232079867,119.5941015,5.01,'11111222,11111222,11111222' 
TABS,ioos:station:wmo:42045:1,2011-06-03T16:30:00Z,26.2168,-96.4998,4.0,4.794006675,120.0417146,6.02,'11111222,11111222,11111222' 
TABS,ioos:station:wmo:42045:1,2011-06-03T17:00:00Z,26.2168,-96.4998,4.0,4.492538258,119.7610514,5.18,'11111222,11111222,11111222' 
TABS,ioos:station:wmo:42045:1,2011-06-03T17:30:00Z,26.2168,-96.4998,4.0,4.047530111,117.1984853,4.91,'11111222,11111222,11111222' 
TABS,ioos:station:wmo:42045:1,2011-06-03T18:00:00Z,26.2168,-96.4998,4.0,3.627368192,115.6470627,4.26,'11111222,11111222,11111222' 
TABS,ioos:station:wmo:42045:1,2011-06-03T18:30:00Z,26.2168,-96.4998,4.0,2.813751944,103.1476325,3.5,'11111222,11111222,11111222' 
TABS,ioos:station:wmo:42045:1,2011-06-03T19:00:00Z,26.2168,-96.4998,4.0,3.377173374,86.26451046,4.7,'11111222,11111222,11111222' 
TABS,ioos:station:wmo:42045:1,2011-06-03T19:30:00Z,26.2168,-96.4998,4.0,3.689119136,80.63941017,4.63,'11111222,11111222,11111222' 
TABS,ioos:station:wmo:42045:1,2011-06-03T20:00:00Z,26.2168,-96.4998,4.0,4.733053982,92.05878646,5.49,'11111222,11111222,11111222' 
TABS,ioos:station:wmo:42045:1,2011-06-03T20:30:00Z,26.2168,-96.4998,4.0,4.319039245,96.64824217,5.09,'11111222,11111222,11111222' 
TABS,ioos:station:wmo:42045:1,2011-06-03T21:00:00Z,26.2168,-96.4998,4.0,4.602977297,96.86295249,5.42,'11111222,11111222,11111222' 
TABS,ioos:station:wmo:42045:1,2011-06-03T21:30:00Z,26.2168,-96.4998,4.0,5.066793858,99.31399805,6.57,'11111222,11111222,11111222' 
TABS,ioos:station:wmo:42045:1,2011-06-03T22:00:00Z,26.2168,-96.4998,4.0,5.07394324,103.6805925,5.95,'11111222,11111222,11111222' 
TABS,ioos:station:wmo:42045:1,2011-06-03T22:30:00Z,26.2168,-96.4998,4.0,4.973861679,98.44003132,6.15,'11111222,11111222,11111222' 
TABS,ioos:station:wmo:42045:1,2011-06-03T23:00:00Z,26.2168,-96.4998,4.0,5.693856338,96.25169854,6.49,'11111222,11111222,11111222' 
TABS,ioos:station:wmo:42045:1,2011-06-03T23:30:00Z,26.2168,-96.4998,4.0,5.564395744,94.12270909,6.36,'11111222,11111222,11111222' 
TABS,ioos:station:wmo:42045:1,2011-06-04T00:00:00Z,26.2168,-96.4998,4.0,5.686897221,92.82256962,6.59,'11111222,11111222,11111222' 
TABS,ioos:station:wmo:42045:1,2011-06-04T00:30:00Z,26.2168,-96.4998,4.0,5.566075817,92.67776328,6.36,'11111222,11111222,11111222' 
TABS,ioos:station:wmo:42045:1,2011-06-04T01:00:00Z,26.2168,-96.4998,4.0,5.651937721,83.90568908,6.65,'11111222,11111222,11111222' 
TABS,ioos:station:wmo:42045:1,2011-06-04T01:30:00Z,26.2168,-96.4998,4.0,8.074156303,102.5907744,9.81,'11111222,11111222,11111222' 
TABS,ioos:station:wmo:42045:1,2011-06-04T02:00:00Z,26.2168,-96.4998,4.0,7.909772437,110.887064,9.24,'11111222,11111222,11111222' 
TABS,ioos:station:wmo:42045:1,2011-06-04T02:30:00Z,26.2168,-96.4998,4.0,8.273409213,105.5652728,9.59,'11111222,11111222,11111222' 
TABS,ioos:station:wmo:42045:1,2011-06-04T03:00:00Z,26.2168,-96.4998,4.0,7.499933333,100.6810591,8.82,'11111222,11111222,11111222' 
TABS,ioos:station:wmo:42045:1,2011-06-04T03:30:00Z,26.2168,-96.4998,4.0,7.538832801,103.1886884,8.91,'11111222,11111222,11111222' 
TABS,ioos:station:wmo:42045:1,2011-06-04T04:00:00Z,26.2168,-96.4998,4.0,7.41306954,109.2174712,8.58,'11111222,11111222,11111222' 
TABS,ioos:station:wmo:42045:1,2011-06-04T04:30:00Z,26.2168,-96.4998,4.0,7.211608697,106.3495707,8.43,'11111222,11111222,11111222' 
TABS,ioos:station:wmo:42045:1,2011-06-04T05:00:00Z,26.2168,-96.4998,4.0,7.956663874,106.7272152,9.39,'11111222,11111222,11111222' 
TABS,ioos:station:wmo:42045:1,2011-06-04T05:30:00Z,26.2168,-96.4998,4.0,7.904587276,109.7419635,9.45,'11111222,11111222,11111222' 
TABS,ioos:station:wmo:42045:1,2011-06-04T06:00:00Z,26.2168,-96.4998,4.0,7.609421791,117.9798299,9.11,'11111222,11111222,11111222' 
TABS,ioos:station:wmo:42045:1,2011-06-04T06:30:00Z,26.2168,-96.4998,4.0,7.258298699,116.424201,9.04,'11111222,11111222,11111222' 
TABS,ioos:station:wmo:42045:1,2011-06-04T07:00:00Z,26.2168,-96.4998,4.0,7.635928234,117.8742216,9.64,'11111222,11111222,11111222' 
TABS,ioos:station:wmo:42045:1,2011-06-04T07:30:00Z,26.2168,-96.4998,4.0,8.082177924,119.9914371,9.84,'11111222,11111222,11111222' 
TABS,ioos:station:wmo:42045:1,2011-06-04T08:00:00Z,26.2168,-96.4998,4.0,7.190778817,118.4899906,8.6,'11111222,11111222,11111222' 
TABS,ioos:station:wmo:42045:1,2011-06-04T08:30:00Z,26.2168,-96.4998,4.0,7.450939538,114.5015951,9.14,'11111222,11111222,11111222' 
TABS,ioos:station:wmo:42045:1,2011-06-04T09:00:00Z,26.2168,-96.4998,4.0,6.28472752,121.9960657,7.84,'11111222,11111222,11111222' 
TABS,ioos:station:wmo:42045:1,2011-06-04T09:30:00Z,26.2168,-96.4998,4.0,6.992832044,121.8493978,8.36,'11111222,11111222,11111222' 
TABS,ioos:station:wmo:42045:1,2011-06-04T10:00:00Z,26.2168,-96.4998,4.0,7.220484748,120.3653125,8.45,'11111222,11111222,11111222' 
TABS,ioos:station:wmo:42045:1,2011-06-04T10:30:00Z,26.2168,-96.4998,4.0,7.019693726,120.4741713,8.33,'11111222,11111222,11111222' 
TABS,ioos:station:wmo:42045:1,2011-06-04T11:00:00Z,26.2168,-96.4998,4.0,7.716249089,126.4098573,9.16,'11111222,11111222,11111222' 
TABS,ioos:station:wmo:42045:1,2011-06-04T11:30:00Z,26.2168,-96.4998,4.0,7.263339452,121.5458354,8.48,'11111222,11111222,11111222' 
TABS,ioos:station:wmo:42045:1,2011-06-04T12:00:00Z,26.2168,-96.4998,4.0,7.293010352,118.3223942,8.63,'11111222,11111222,11111222' 
TABS,ioos:station:wmo:42045:1,2011-06-04T12:30:00Z,26.2168,-96.4998,4.0,6.475191117,109.8625243,8.22,'11111222,11111222,11111222' 
TABS,ioos:station:wmo:42045:1,2011-06-04T13:00:00Z,26.2168,-96.4998,4.0,6.922499549,113.0468067,8.26,'11111222,11111222,11111222' 
TABS,ioos:station:wmo:42045:1,2011-06-04T13:30:00Z,26.2168,-96.4998,4.0,6.84853999,109.8905612,8.63,'11111222,11111222,11111222' 
TABS,ioos:station:wmo:42045:1,2011-06-04T14:00:00Z,26.2168,-96.4998,4.0,7.096055242,106.0345067,8.47,'11111222,11111222,11111222' 
TABS,ioos:station:wmo:42045:1,2011-06-04T14:30:00Z,26.2168,-96.4998,4.0,6.59336788,108.572726,7.58,'11111222,11111222,11111222' 
TABS,ioos:station:wmo:42045:1,2011-06-04T15:00:00Z,26.2168,-96.4998,4.0,6.702313034,112.5478983,8.13,'11111222,11111222,11111222' 
TABS,ioos:station:wmo:42045:1,2011-06-04T15:30:00Z,26.2168,-96.4998,4.0,7.16029329,117.1737731,8.52,'11111222,11111222,11111222' 
TABS,ioos:station:wmo:42045:1,2011-06-04T16:00:00Z,26.2168,-96.4998,4.0,6.205618422,119.3329585,7.31,'11111222,11111222,11111222' 
TABS,ioos:station:wmo:42045:1,2011-06-04T16:30:00Z,26.2168,-96.4998,4.0,5.822319126,131.6583796,8.42,'11111222,11111222,11111222' 
TABS,ioos:station:wmo:42045:1,2011-06-04T17:00:00Z,26.2168,-96.4998,4.0,6.958462474,111.1442922,8.42,'11111222,11111222,11111222' 
TABS,ioos:station:wmo:42045:1,2011-06-04T17:30:00Z,26.2168,-96.4998,4.0,9.703695172,83.43118582,11.64,'11111222,11111222,11111222' 
TABS,ioos:station:wmo:42045:1,2011-06-04T18:00:00Z,26.2168,-96.4998,4.0,6.812936225,104.3629827,8.29,'11111222,11111222,11111222' 
TABS,ioos:station:wmo:42045:1,2011-06-04T18:30:00Z,26.2168,-96.4998,4.0,6.66418037,109.5500988,7.75,'11111222,11111222,11111222' 